,,Stat5,,Stat1,,Stat2,,Stat3,,Stat4,,Wind1,,Wind1,
time,status,PA1M_AVG,status,PR1M_SUM,status,RH1M_AVG,status,SR1M_AVG,status,TA1M_AVG,status,W1dAve1m,status,W1sAve1m,
2001-04-30, 00:00:00,VALID,917.572,VALID,0,VALID,96.5097,VALID,-0.101885,VALID,19.8178,VALID,93,VALID,0.625,
2001-04-30, 00:01:00,VALID,917.577,VALID,0,VALID,96.5339,VALID,-0.0849042,VALID,19.8019,VALID,93,VALID,0.630962,
2001-04-30, 00:02:00,VALID,917.574,VALID,0,VALID,96.7373,VALID,-0.101885,VALID,19.7994,VALID,97,VALID,0.674137,
2001-04-30, 00:03:00,VALID,917.56,VALID,0,VALID,96.8848,VALID,-0.101885,VALID,19.7795,VALID,105,VALID,0.600761,
2001-04-30, 00:04:00,VALID,917.554,VALID,0,VALID,97.0183,VALID,-0.118866,VALID,19.7733,VALID,116,VALID,0.600123,
2001-04-30, 00:05:00,VALID,917.546,VALID,0,VALID,97.0056,VALID,-0.101885,VALID,19.7504,VALID,116,VALID,0.353885,
2001-04-30, 00:06:00,VALID,917.544,VALID,0,VALID,97.1964,VALID,-0.135847,VALID,19.7512,VALID,111,VALID,0.561547,
2001-04-30, 00:07:00,VALID,917.532,VALID,0,VALID,97.4507,VALID,-0.101885,VALID,19.7668,VALID,92,VALID,0.770703,
2001-04-30, 00:08:00,VALID,917.548,VALID,0,VALID,97.4278,VALID,-0.101885,VALID,19.7604,VALID,96,VALID,0.509816,
2001-04-30, 00:09:00,VALID,917.531,VALID,0,VALID,97.4774,VALID,0,VALID,19.7358,VALID,104,VALID,0.402455,
2001-04-30, 00:10:00,VALID,917.52,VALID,0,VALID,97.5181,VALID,0.0169808,VALID,19.7358,VALID,106,VALID,0.435937,
2001-04-30, 00:11:00,VALID,917.519,VALID,0,VALID,97.5613,VALID,0,VALID,19.7395,VALID,106,VALID,0.36046,
2001-04-30, 00:12:00,VALID,917.512,VALID,0,VALID,97.616,VALID,0,VALID,19.7295,VALID,125,VALID,0.413845,
2001-04-30, 00:13:00,VALID,917.519,VALID,0,VALID,97.644,VALID,0,VALID,19.7134,VALID,130,VALID,0.299479,
2001-04-30, 00:14:00,VALID,917.519,VALID,0,VALID,97.7292,VALID,0,VALID,19.7196,VALID,130,VALID,0.193668,
2001-04-30, 00:15:00,VALID,917.524,VALID,0,VALID,97.7012,VALID,-0.0169808,VALID,19.7037,VALID,139,VALID,0.273643,
2001-04-30, 00:16:00,VALID,917.534,VALID,0,VALID,97.6681,VALID,-0.0169808,VALID,19.6781,VALID,158,VALID,0.405617,
2001-04-30, 00:17:00,VALID,917.525,VALID,0,VALID,97.6834,VALID,0,VALID,19.6627,VALID,174,VALID,0.574436,
2001-04-30, 00:18:00,VALID,917.527,VALID,0,VALID,97.7482,VALID,-0.0169808,VALID,19.6264,VALID,194,VALID,0.64147,
2001-04-30, 00:19:00,VALID,917.539,VALID,0,VALID,97.85,VALID,0,VALID,19.6264,VALID,204,VALID,0.632813,
2001-04-30, 00:20:00,VALID,917.541,VALID,0,VALID,97.9008,VALID,0,VALID,19.6033,VALID,204,VALID,0.669071,
2001-04-30, 00:21:00,VALID,917.541,VALID,0,VALID,97.9428,VALID,-0.0169808,VALID,19.5976,VALID,203,VALID,0.684495,
2001-04-30, 00:22:00,VALID,917.527,VALID,0,VALID,98.0331,VALID,0,VALID,19.6006,VALID,215,VALID,0.570946,
2001-04-30, 00:23:00,VALID,917.511,VALID,0.2,VALID,98.0954,VALID,0,VALID,19.6038,VALID,217,VALID,0.580387,
2001-04-30, 00:24:00,VALID,917.493,VALID,0,VALID,98.0967,VALID,0,VALID,19.6073,VALID,211,VALID,0.499199,
2001-04-30, 00:25:00,VALID,917.473,VALID,0,VALID,98.1017,VALID,-0.0169808,VALID,19.6008,VALID,202,VALID,0.378606,
2001-04-30, 00:26:00,VALID,917.46,VALID,0,VALID,98.0763,VALID,0,VALID,19.5941,VALID,211,VALID,0.443015,
2001-04-30, 00:27:00,VALID,917.446,VALID,0,VALID,98.0738,VALID,0,VALID,19.5877,VALID,204,VALID,0.453947,
2001-04-30, 00:28:00,VALID,917.435,VALID,0,VALID,97.9631,VALID,-0.0339617,VALID,19.5752,VALID,202,VALID,0.371711,
2001-04-30, 00:29:00,VALID,917.398,VALID,0,VALID,97.9631,VALID,-0.0339617,VALID,19.5752,VALID,201,VALID,0.2602,
2001-04-30, 00:30:00,VALID,917.393,VALID,0,VALID,98.0064,VALID,-0.0169808,VALID,19.5847,VALID,200,VALID,0.0112847,
2001-04-30, 00:31:00,VALID,917.388,VALID,0,VALID,98.0216,VALID,-0.0169808,VALID,19.5973,VALID,200,VALID,0.153372,
2001-04-30, 00:32:00,VALID,917.392,VALID,0,VALID,97.939,VALID,-0.0169808,VALID,19.5879,VALID,205,VALID,0.328336,
2001-04-30, 00:33:00,VALID,917.378,VALID,0,VALID,97.9657,VALID,-0.0169808,VALID,19.5844,VALID,218,VALID,0.488393,
2001-04-30, 00:34:00,VALID,917.383,VALID,0,VALID,97.9708,VALID,0,VALID,19.5874,VALID,217,VALID,0.573214,
2001-04-30, 00:35:00,VALID,917.377,VALID,0,VALID,97.9352,VALID,-0.0169808,VALID,19.5713,VALID,215,VALID,0.575041,
2001-04-30, 00:36:00,VALID,917.366,VALID,0,VALID,97.9937,VALID,0,VALID,19.5683,VALID,212,VALID,0.432893,
2001-04-30, 00:37:00,VALID,917.375,VALID,0,VALID,98.0407,VALID,-0.0169808,VALID,19.565,VALID,204,VALID,0.66875,
2001-04-30, 00:38:00,VALID,917.378,VALID,0,VALID,98.0356,VALID,0,VALID,19.5551,VALID,199,VALID,0.987459,
2001-04-30, 00:39:00,VALID,917.371,VALID,0,VALID,98.0649,VALID,0.0169808,VALID,19.5389,VALID,198,VALID,0.547931,
2001-04-30, 00:40:00,VALID,917.367,VALID,0,VALID,98.0992,VALID,0,VALID,19.5427,VALID,192,VALID,0.721955,
2001-04-30, 00:41:00,VALID,917.354,VALID,0,VALID,98.1106,VALID,0.0169808,VALID,19.5131,VALID,185,VALID,0.626603,
2001-04-30, 00:42:00,VALID,917.348,VALID,0,VALID,98.1895,VALID,0,VALID,19.5064,VALID,215,VALID,0.329728,
2001-04-30, 00:43:00,VALID,917.336,VALID,0,VALID,98.2391,VALID,0.0339617,VALID,19.526,VALID,216,VALID,0.482812,
2001-04-30, 00:44:00,VALID,917.327,VALID,0,VALID,98.2632,VALID,0.0169808,VALID,19.523,VALID,226,VALID,0.760156,
2001-04-30, 00:45:00,VALID,917.295,VALID,0,VALID,98.2493,VALID,0,VALID,19.5171,VALID,219,VALID,0.775391,
2001-04-30, 00:46:00,VALID,917.281,VALID,0,VALID,98.2645,VALID,0,VALID,19.5037,VALID,227,VALID,0.996528,
2001-04-30, 00:47:00,VALID,917.264,VALID,0,VALID,98.2963,VALID,0,VALID,19.5074,VALID,223,VALID,0.867399,
2001-04-30, 00:48:00,VALID,917.252,VALID,0,VALID,98.3446,VALID,0,VALID,19.4974,VALID,222,VALID,1.03845,
2001-04-30, 00:49:00,VALID,917.226,VALID,0,VALID,98.4057,VALID,0,VALID,19.5009,VALID,229,VALID,1.01753,
2001-04-30, 00:50:00,VALID,917.218,VALID,0,VALID,98.454,VALID,0,VALID,19.4808,VALID,232,VALID,0.83277,
2001-04-30, 00:51:00,VALID,917.197,VALID,0,VALID,98.4591,VALID,0,VALID,19.4746,VALID,227,VALID,1.15424,
2001-04-30, 00:52:00,VALID,917.178,VALID,0,VALID,98.4781,VALID,0.0169808,VALID,19.452,VALID,221,VALID,0.907072,
2001-04-30, 00:53:00,VALID,917.165,VALID,0,VALID,98.4896,VALID,0.0169808,VALID,19.4487,VALID,220,VALID,1.05828,
2001-04-30, 00:54:00,VALID,917.139,VALID,0,VALID,98.5303,VALID,0,VALID,19.4358,VALID,223,VALID,0.94112,
2001-04-30, 00:55:00,VALID,917.141,VALID,0,VALID,98.5341,VALID,0,VALID,19.4333,VALID,218,VALID,0.800586,
2001-04-30, 00:56:00,VALID,917.13,VALID,0,VALID,98.5481,VALID,0.0169808,VALID,19.4197,VALID,223,VALID,0.773438,
2001-04-30, 00:57:00,VALID,917.112,VALID,0,VALID,98.5392,VALID,0.0339617,VALID,19.3998,VALID,224,VALID,0.787418,
2001-04-30, 00:58:00,VALID,917.087,VALID,0,VALID,98.5188,VALID,0.0169808,VALID,19.4033,VALID,219,VALID,0.967578,
2001-04-30, 00:59:00,VALID,917.073,VALID,0,VALID,98.4959,VALID,0,VALID,19.4033,VALID,222,VALID,0.777043,
2001-04-30, 01:00:00,VALID,917.073,VALID,0,VALID,98.4718,VALID,0,VALID,19.4068,VALID,231,VALID,0.730357,
2001-04-30, 01:01:00,VALID,917.054,VALID,0,VALID,98.4616,VALID,0,VALID,19.4035,VALID,226,VALID,0.621484,
2001-04-30, 01:02:00,VALID,917.042,VALID,0,VALID,98.4324,VALID,0,VALID,19.4139,VALID,234,VALID,0.580946,
2001-04-30, 01:03:00,VALID,917.029,VALID,0,VALID,98.3701,VALID,0,VALID,19.4164,VALID,228,VALID,0.333767,
2001-04-30, 01:04:00,VALID,917.011,VALID,0,VALID,98.2874,VALID,0,VALID,19.4065,VALID,227,VALID,0.58734,
2001-04-30, 01:05:00,VALID,916.995,VALID,0,VALID,98.173,VALID,-0.0169808,VALID,19.407,VALID,231,VALID,0.657484,
2001-04-30, 01:06:00,VALID,916.977,VALID,0,VALID,97.9809,VALID,0,VALID,19.4005,VALID,230,VALID,0.654811,
2001-04-30, 01:07:00,VALID,916.965,VALID,0,VALID,97.8347,VALID,-0.0169808,VALID,19.4068,VALID,230,VALID,0.431799,
2001-04-30, 01:08:00,VALID,916.952,VALID,0,VALID,97.7317,VALID,0.0169808,VALID,19.4194,VALID,230,VALID,0.45421,
2001-04-30, 01:09:00,VALID,916.921,VALID,0,VALID,97.6503,VALID,0,VALID,19.4326,VALID,253,VALID,0.355152,
2001-04-30, 01:10:00,VALID,916.915,VALID,0,VALID,97.5651,VALID,0,VALID,19.4393,VALID,239,VALID,0.179276,
2001-04-30, 01:11:00,VALID,916.883,VALID,0,VALID,97.5168,VALID,0,VALID,19.4463,VALID,240,VALID,0.067508,
2001-04-30, 01:12:00,VALID,916.865,VALID,0,VALID,97.3909,VALID,-0.0169808,VALID,19.4492,VALID,241,VALID,0.0773237,
2001-04-30, 01:13:00,VALID,916.847,VALID,0,VALID,97.3744,VALID,0,VALID,19.4356,VALID,241,VALID,0,
2001-04-30, 01:14:00,VALID,916.835,VALID,0,VALID,97.471,VALID,0,VALID,19.4555,VALID,238,VALID,0,
2001-04-30, 01:15:00,VALID,916.811,VALID,0,VALID,97.5384,VALID,0,VALID,19.4781,VALID,238,VALID,0,
2001-04-30, 01:16:00,VALID,916.801,VALID,0,VALID,97.382,VALID,0,VALID,19.4517,VALID,289,VALID,0.13722,
2001-04-30, 01:17:00,VALID,916.798,VALID,0,VALID,97.1811,VALID,-0.0169808,VALID,19.4269,VALID,319,VALID,0.16659,
2001-04-30, 01:18:00,VALID,916.781,VALID,0,VALID,97.1569,VALID,-0.0169808,VALID,19.3936,VALID,315,VALID,0.000822368,
2001-04-30, 01:19:00,VALID,916.766,VALID,0,VALID,97.3223,VALID,0,VALID,19.3941,VALID,315,VALID,0,
2001-04-30, 01:20:00,VALID,916.744,VALID,0,VALID,97.5206,VALID,0.0169808,VALID,19.3869,VALID,315,VALID,0,
2001-04-30, 01:21:00,VALID,916.729,VALID,0,VALID,97.6173,VALID,0,VALID,19.3812,VALID,315,VALID,0,
2001-04-30, 01:22:00,VALID,916.714,VALID,0,VALID,97.7317,VALID,0,VALID,19.3715,VALID,315,VALID,0,
2001-04-30, 01:23:00,VALID,916.71,VALID,0,VALID,97.8258,VALID,0,VALID,19.3747,VALID,315,VALID,0,
2001-04-30, 01:24:00,VALID,916.7,VALID,0,VALID,97.794,VALID,-0.0169808,VALID,19.3493,VALID,315,VALID,0,
2001-04-30, 01:25:00,VALID,916.694,VALID,0,VALID,97.7495,VALID,-0.0679233,VALID,19.3108,VALID,314,VALID,0.0732143,
2001-04-30, 01:26:00,VALID,916.701,VALID,0,VALID,97.7724,VALID,-0.0849042,VALID,19.2981,VALID,308,VALID,0.212788,
2001-04-30, 01:27:00,VALID,916.683,VALID,0,VALID,97.7139,VALID,-0.0509425,VALID,19.2587,VALID,308,VALID,0.264423,
2001-04-30, 01:28:00,VALID,916.673,VALID,0,VALID,97.7254,VALID,-0.0169808,VALID,19.2293,VALID,150,VALID,0.334766,
2001-04-30, 01:29:00,VALID,916.648,VALID,0,VALID,97.6567,VALID,-0.0169808,VALID,19.2104,VALID,139,VALID,0,
2001-04-30, 01:30:00,VALID,916.64,VALID,0,VALID,97.644,VALID,-0.0169808,VALID,19.1878,VALID,139,VALID,0.406461,
2001-04-30, 01:31:00,VALID,916.632,VALID,0,VALID,97.5689,VALID,0,VALID,19.1592,VALID,139,VALID,0.400441,
2001-04-30, 01:32:00,VALID,916.605,VALID,0,VALID,97.616,VALID,-0.0339617,VALID,19.1039,VALID,139,VALID,0.352364,
2001-04-30, 01:33:00,VALID,916.577,VALID,0,VALID,97.7737,VALID,-0.0169808,VALID,19.1009,VALID,139,VALID,0.181691,
2001-04-30, 01:34:00,VALID,916.561,VALID,0,VALID,97.78,VALID,0,VALID,19.0815,VALID,139,VALID,0.249777,
2001-04-30, 01:35:00,VALID,916.543,VALID,0,VALID,97.7241,VALID,-0.0509425,VALID,19.0457,VALID,134,VALID,0.551953,
2001-04-30, 01:36:00,VALID,916.51,VALID,0,VALID,97.7521,VALID,-0.0339617,VALID,19.0111,VALID,125,VALID,0.573785,
2001-04-30, 01:37:00,VALID,916.509,VALID,0,VALID,97.8156,VALID,-0.0679233,VALID,18.9719,VALID,125,VALID,0.53125,
2001-04-30, 01:38:00,VALID,916.487,VALID,0,VALID,97.9136,VALID,-0.0509425,VALID,18.9458,VALID,125,VALID,0.438767,
2001-04-30, 01:39:00,VALID,916.476,VALID,0,VALID,98.0115,VALID,-0.0509425,VALID,18.9558,VALID,147,VALID,0.468956,
2001-04-30, 01:40:00,VALID,916.454,VALID,0,VALID,98.0458,VALID,-0.0339617,VALID,18.955,VALID,168,VALID,0.435389,
2001-04-30, 01:41:00,VALID,916.441,VALID,0,VALID,98.0115,VALID,0,VALID,18.9947,VALID,168,VALID,0.283573,
2001-04-30, 01:42:00,VALID,916.428,VALID,0,VALID,97.9275,VALID,-0.0169808,VALID,19.0139,VALID,168,VALID,0.327009,
2001-04-30, 01:43:00,VALID,916.437,VALID,0,VALID,97.7851,VALID,0,VALID,19.0169,VALID,168,VALID,0.0320724,
2001-04-30, 01:44:00,VALID,916.428,VALID,0,VALID,97.63,VALID,0,VALID,19.0102,VALID,168,VALID,0,
2001-04-30, 01:45:00,VALID,916.414,VALID,0,VALID,97.6134,VALID,-0.0169808,VALID,19.0102,VALID,183,VALID,0.278582,
2001-04-30, 01:46:00,VALID,916.416,VALID,0,VALID,97.5842,VALID,-0.0339617,VALID,19.0099,VALID,205,VALID,0.707617,
2001-04-30, 01:47:00,VALID,916.404,VALID,0,VALID,97.6058,VALID,0,VALID,19.033,VALID,210,VALID,0.718956,
2001-04-30, 01:48:00,VALID,916.387,VALID,0,VALID,97.5918,VALID,-0.0169808,VALID,19.0556,VALID,208,VALID,0.75,
2001-04-30, 01:49:00,VALID,916.37,VALID,0,VALID,97.5422,VALID,-0.0169808,VALID,19.0824,VALID,196,VALID,0.346094,
2001-04-30, 01:50:00,VALID,916.367,VALID,0,VALID,97.5219,VALID,-0.0509425,VALID,19.0686,VALID,191,VALID,0.276042,
2001-04-30, 01:51:00,VALID,916.351,VALID,0,VALID,97.5105,VALID,-0.0339617,VALID,19.0718,VALID,187,VALID,0.341518,
2001-04-30, 01:52:00,VALID,916.358,VALID,0,VALID,97.3909,VALID,-0.0169808,VALID,19.0686,VALID,187,VALID,0.0140625,
2001-04-30, 01:53:00,VALID,916.343,VALID,0,VALID,97.2816,VALID,0,VALID,19.0492,VALID,187,VALID,0.00390625,
2001-04-30, 01:54:00,VALID,916.343,VALID,0,VALID,97.1124,VALID,0.0509425,VALID,19.0224,VALID,187,VALID,0,
2001-04-30, 01:55:00,VALID,916.345,VALID,0,VALID,97.0107,VALID,0.0679233,VALID,18.97,VALID,187,VALID,0,
2001-04-30, 01:56:00,VALID,916.328,VALID,0,VALID,97.059,VALID,0.0679233,VALID,18.955,VALID,187,VALID,0,
2001-04-30, 01:57:00,VALID,916.306,VALID,0,VALID,97.1697,VALID,0.0849042,VALID,18.9156,VALID,187,VALID,0,
2001-04-30, 01:58:00,VALID,916.304,VALID,0,VALID,97.3299,VALID,0.101885,VALID,18.916,VALID,187,VALID,0,
2001-04-30, 01:59:00,VALID,916.295,VALID,0,VALID,97.485,VALID,0.0679233,VALID,18.9128,VALID,187,VALID,0,
2001-04-30, 02:00:00,VALID,916.286,VALID,0,VALID,97.5664,VALID,0.0849042,VALID,18.9193,VALID,187,VALID,0,
2001-04-30, 02:01:00,VALID,916.272,VALID,0,VALID,97.5702,VALID,0.0679233,VALID,18.8992,VALID,187,VALID,0,
2001-04-30, 02:02:00,VALID,916.256,VALID,0,VALID,97.5715,VALID,0.0339617,VALID,18.9026,VALID,187,VALID,0,
2001-04-30, 02:03:00,VALID,916.25,VALID,0,VALID,97.4825,VALID,0.0849042,VALID,18.8738,VALID,187,VALID,0,
2001-04-30, 02:04:00,VALID,916.263,VALID,0,VALID,97.4443,VALID,0.0339617,VALID,18.8482,VALID,186,VALID,0.00527872,
2001-04-30, 02:05:00,VALID,916.243,VALID,0,VALID,97.466,VALID,0.0339617,VALID,18.8321,VALID,182,VALID,0.284951,
2001-04-30, 02:06:00,VALID,916.238,VALID,0,VALID,97.485,VALID,0.0169808,VALID,18.8196,VALID,166,VALID,0.508013,
2001-04-30, 02:07:00,VALID,916.225,VALID,0,VALID,97.4863,VALID,0,VALID,18.7968,VALID,149,VALID,0.613782,
2001-04-30, 02:08:00,VALID,916.234,VALID,0,VALID,97.4965,VALID,0.0339617,VALID,18.7647,VALID,142,VALID,0.602711,
2001-04-30, 02:09:00,VALID,916.209,VALID,0,VALID,97.452,VALID,0,VALID,18.7237,VALID,128,VALID,0.521998,
2001-04-30, 02:10:00,VALID,916.213,VALID,0,VALID,97.5181,VALID,0,VALID,18.6881,VALID,126,VALID,0.517525,
2001-04-30, 02:11:00,VALID,916.196,VALID,0,VALID,97.5486,VALID,0,VALID,18.636,VALID,124,VALID,0.54145,
2001-04-30, 02:12:00,VALID,916.192,VALID,0,VALID,97.6427,VALID,0,VALID,18.6002,VALID,124,VALID,0.350694,
2001-04-30, 02:13:00,VALID,916.181,VALID,0,VALID,97.7978,VALID,0,VALID,18.5947,VALID,124,VALID,0.340666,
2001-04-30, 02:14:00,VALID,916.196,VALID,0,VALID,97.8334,VALID,0.0169808,VALID,18.562,VALID,124,VALID,0.371833,
2001-04-30, 02:15:00,VALID,916.198,VALID,0,VALID,97.8792,VALID,0,VALID,18.5363,VALID,123,VALID,0.518527,
2001-04-30, 02:16:00,VALID,916.183,VALID,0,VALID,97.9542,VALID,0,VALID,18.5135,VALID,118,VALID,0.641741,
2001-04-30, 02:17:00,VALID,916.182,VALID,0,VALID,98.0534,VALID,-0.0169808,VALID,18.4941,VALID,101,VALID,0.890419,
2001-04-30, 02:18:00,VALID,916.181,VALID,0,VALID,98.2175,VALID,0,VALID,18.4907,VALID,91,VALID,1.09996,
2001-04-30, 02:19:00,VALID,916.167,VALID,0,VALID,98.379,VALID,0,VALID,18.5204,VALID,94,VALID,1.0752,
2001-04-30, 02:20:00,VALID,916.149,VALID,0,VALID,98.4222,VALID,0,VALID,18.5239,VALID,95,VALID,1.13507,
2001-04-30, 02:21:00,VALID,916.126,VALID,0,VALID,98.5087,VALID,-0.0169808,VALID,18.5207,VALID,88,VALID,1.24557,
2001-04-30, 02:22:00,VALID,916.119,VALID,0,VALID,98.6511,VALID,0,VALID,18.5527,VALID,85,VALID,1.30369,
2001-04-30, 02:23:00,VALID,916.098,VALID,0,VALID,98.6892,VALID,0.0169808,VALID,18.5557,VALID,87,VALID,1.22837,
2001-04-30, 02:24:00,VALID,916.078,VALID,0,VALID,98.7197,VALID,-0.0169808,VALID,18.5562,VALID,89,VALID,0.843149,
2001-04-30, 02:25:00,VALID,916.071,VALID,0,VALID,98.7859,VALID,0,VALID,18.5557,VALID,80,VALID,0.948214,
2001-04-30, 02:26:00,VALID,916.049,VALID,0,VALID,98.8749,VALID,0,VALID,18.582,VALID,76,VALID,1.05469,
2001-04-30, 02:27:00,VALID,916.037,VALID,0,VALID,98.9219,VALID,0,VALID,18.6111,VALID,67,VALID,0.915799,
2001-04-30, 02:28:00,VALID,916.022,VALID,0,VALID,98.969,VALID,-0.0169808,VALID,18.6369,VALID,54,VALID,1.06727,
2001-04-30, 02:29:00,VALID,916.024,VALID,0,VALID,99.0135,VALID,0.0169808,VALID,18.6499,VALID,63,VALID,0.453125,
2001-04-30, 02:30:00,VALID,915.997,VALID,0,VALID,99.0453,VALID,0,VALID,18.6558,VALID,97,VALID,0.445518,
2001-04-30, 02:31:00,VALID,915.996,VALID,0,VALID,99.0542,VALID,-0.0169808,VALID,18.6494,VALID,87,VALID,0.34185,
2001-04-30, 02:32:00,VALID,915.987,VALID,0,VALID,99.0783,VALID,0,VALID,18.6692,VALID,89,VALID,0.335093,
2001-04-30, 02:33:00,VALID,915.979,VALID,0,VALID,99.0885,VALID,-0.0169808,VALID,18.6789,VALID,91,VALID,0.20625,
2001-04-30, 02:34:00,VALID,915.968,VALID,0,VALID,99.0974,VALID,-0.0509425,VALID,18.6757,VALID,54,VALID,0.359786,
2001-04-30, 02:35:00,VALID,915.95,VALID,0,VALID,99.1279,VALID,0,VALID,18.6881,VALID,354,VALID,0.359797,
2001-04-30, 02:36:00,VALID,915.947,VALID,0,VALID,99.1432,VALID,0,VALID,18.7045,VALID,29,VALID,0.220274,
2001-04-30, 02:37:00,VALID,915.96,VALID,0,VALID,99.1534,VALID,0,VALID,18.7115,VALID,28,VALID,0.293069,
2001-04-30, 02:38:00,VALID,915.955,VALID,0,VALID,99.1648,VALID,0,VALID,18.7115,VALID,16,VALID,0.263158,
2001-04-30, 02:39:00,VALID,915.944,VALID,0,VALID,99.1788,VALID,0,VALID,18.7174,VALID,348,VALID,0.112253,
2001-04-30, 02:40:00,VALID,915.956,VALID,0,VALID,99.1763,VALID,-0.0339617,VALID,18.7241,VALID,238,VALID,0.191602,
2001-04-30, 02:41:00,VALID,915.97,VALID,0,VALID,99.1813,VALID,0,VALID,18.7274,VALID,134,VALID,0.288862,
2001-04-30, 02:42:00,VALID,915.958,VALID,0,VALID,99.1712,VALID,0,VALID,18.7043,VALID,133,VALID,0.190179,
2001-04-30, 02:43:00,VALID,915.978,VALID,0,VALID,99.147,VALID,0.0169808,VALID,18.6849,VALID,169,VALID,0.374805,
2001-04-30, 02:44:00,VALID,915.968,VALID,0,VALID,99.1381,VALID,0,VALID,18.6492,VALID,216,VALID,0.554036,
2001-04-30, 02:45:00,VALID,915.977,VALID,0,VALID,99.1496,VALID,0,VALID,18.6434,VALID,218,VALID,0.964627,
2001-04-30, 02:46:00,VALID,915.982,VALID,0,VALID,99.1686,VALID,0,VALID,18.6141,VALID,219,VALID,1.1875,
2001-04-30, 02:47:00,VALID,916.003,VALID,0,VALID,99.1801,VALID,0,VALID,18.6046,VALID,222,VALID,1.14823,
2001-04-30, 02:48:00,VALID,915.986,VALID,0,VALID,99.1966,VALID,0,VALID,18.5982,VALID,227,VALID,0.961143,
2001-04-30, 02:49:00,VALID,916.017,VALID,0,VALID,99.2042,VALID,0,VALID,18.585,VALID,227,VALID,1.15034,
2001-04-30, 02:50:00,VALID,916.012,VALID,0,VALID,99.203,VALID,0.0169808,VALID,18.579,VALID,226,VALID,1.09701,
2001-04-30, 02:51:00,VALID,916.029,VALID,0,VALID,99.2157,VALID,0,VALID,18.5592,VALID,212,VALID,0.68201,
2001-04-30, 02:52:00,VALID,916.024,VALID,0,VALID,99.2182,VALID,-0.0169808,VALID,18.553,VALID,220,VALID,0.435033,
2001-04-30, 02:53:00,VALID,916.043,VALID,0,VALID,99.2487,VALID,0,VALID,18.5368,VALID,203,VALID,0.252204,
2001-04-30, 02:54:00,VALID,916.039,VALID,0,VALID,99.264,VALID,0,VALID,18.5433,VALID,203,VALID,0.00200321,
2001-04-30, 02:55:00,VALID,916.036,VALID,0,VALID,99.2704,VALID,0,VALID,18.5393,VALID,203,VALID,0.0798142,
2001-04-30, 02:56:00,VALID,916.039,VALID,0,VALID,99.2767,VALID,-0.0169808,VALID,18.5361,VALID,203,VALID,0,
2001-04-30, 02:57:00,VALID,916.044,VALID,0,VALID,99.2653,VALID,0,VALID,18.5299,VALID,205,VALID,0.345152,
2001-04-30, 02:58:00,VALID,916.048,VALID,0,VALID,99.2754,VALID,-0.0169808,VALID,18.5237,VALID,224,VALID,0.892228,
2001-04-30, 02:59:00,VALID,916.051,VALID,0,VALID,99.306,VALID,-0.0169808,VALID,18.5172,VALID,225,VALID,1.31549,
2001-04-30, 03:00:00,VALID,916.056,VALID,0,VALID,99.3288,VALID,0,VALID,18.5527,VALID,229,VALID,1.04009,
2001-04-30, 03:01:00,VALID,916.053,VALID,0,VALID,99.3416,VALID,-0.0169808,VALID,18.5723,VALID,219,VALID,1.03104,
2001-04-30, 03:02:00,VALID,916.067,VALID,0,VALID,99.3479,VALID,0,VALID,18.5823,VALID,211,VALID,0.858073,
2001-04-30, 03:03:00,VALID,916.056,VALID,0,VALID,99.3594,VALID,0,VALID,18.5979,VALID,219,VALID,0.899957,
2001-04-30, 03:04:00,VALID,916.039,VALID,0,VALID,99.3644,VALID,0.0169808,VALID,18.5977,VALID,229,VALID,0.847039,
2001-04-30, 03:05:00,VALID,916.038,VALID,0,VALID,99.3657,VALID,0,VALID,18.6171,VALID,234,VALID,0.848818,
2001-04-30, 03:06:00,VALID,916.03,VALID,0,VALID,99.3721,VALID,0.0169808,VALID,18.624,VALID,236,VALID,0.338839,
2001-04-30, 03:07:00,VALID,916.022,VALID,0,VALID,99.3581,VALID,0,VALID,18.6206,VALID,223,VALID,0.66942,
2001-04-30, 03:08:00,VALID,916.013,VALID,0,VALID,99.3632,VALID,-0.0169808,VALID,18.6176,VALID,222,VALID,0.461965,
2001-04-30, 03:09:00,VALID,916.008,VALID,0,VALID,99.353,VALID,-0.0509425,VALID,18.6113,VALID,225,VALID,1.00381,
2001-04-30, 03:10:00,VALID,915.997,VALID,0,VALID,99.3594,VALID,-0.0339617,VALID,18.6049,VALID,222,VALID,0.970312,
2001-04-30, 03:11:00,VALID,915.989,VALID,0,VALID,99.3568,VALID,-0.0169808,VALID,18.6049,VALID,217,VALID,0.895354,
2001-04-30, 03:12:00,VALID,915.986,VALID,0,VALID,99.3606,VALID,-0.0339617,VALID,18.582,VALID,197,VALID,0.630701,
2001-04-30, 03:13:00,VALID,915.963,VALID,0,VALID,99.367,VALID,-0.0169808,VALID,18.5954,VALID,221,VALID,1.07252,
2001-04-30, 03:14:00,VALID,915.961,VALID,0,VALID,99.3695,VALID,-0.0849042,VALID,18.592,VALID,225,VALID,0.791266,
2001-04-30, 03:15:00,VALID,915.938,VALID,0,VALID,99.3988,VALID,-0.0169808,VALID,18.592,VALID,233,VALID,0.996995,
2001-04-30, 03:16:00,VALID,915.941,VALID,0,VALID,99.3975,VALID,-0.0339617,VALID,18.6016,VALID,237,VALID,0.810714,
2001-04-30, 03:17:00,VALID,915.94,VALID,0,VALID,99.3912,VALID,-0.0339617,VALID,18.5885,VALID,230,VALID,0.9,
2001-04-30, 03:18:00,VALID,915.932,VALID,0,VALID,99.409,VALID,-0.0169808,VALID,18.5949,VALID,219,VALID,0.837891,
2001-04-30, 03:19:00,VALID,915.924,VALID,0,VALID,99.4039,VALID,-0.0169808,VALID,18.5947,VALID,211,VALID,0.642795,
2001-04-30, 03:20:00,VALID,915.928,VALID,0,VALID,99.4001,VALID,0,VALID,18.6014,VALID,225,VALID,0.446791,
2001-04-30, 03:21:00,VALID,915.914,VALID,0,VALID,99.4026,VALID,-0.0509425,VALID,18.5885,VALID,217,VALID,0.422492,
2001-04-30, 03:22:00,VALID,915.91,VALID,0,VALID,99.3899,VALID,-0.0339617,VALID,18.5721,VALID,217,VALID,0.506546,
2001-04-30, 03:23:00,VALID,915.907,VALID,0,VALID,99.4064,VALID,-0.0339617,VALID,18.5691,VALID,220,VALID,0.655828,
2001-04-30, 03:24:00,VALID,915.909,VALID,0,VALID,99.4077,VALID,-0.0339617,VALID,18.5823,VALID,219,VALID,0.544643,
2001-04-30, 03:25:00,VALID,915.904,VALID,0,VALID,99.4179,VALID,0,VALID,18.5788,VALID,227,VALID,0.752056,
2001-04-30, 03:26:00,VALID,915.917,VALID,0,VALID,99.4255,VALID,0,VALID,18.5853,VALID,231,VALID,1.01246,
2001-04-30, 03:27:00,VALID,915.921,VALID,0,VALID,99.4433,VALID,-0.0339617,VALID,18.5949,VALID,236,VALID,0.819169,
2001-04-30, 03:28:00,VALID,915.909,VALID,0,VALID,99.4535,VALID,-0.0169808,VALID,18.6173,VALID,226,VALID,1.10527,
2001-04-30, 03:29:00,VALID,915.898,VALID,0,VALID,99.4547,VALID,-0.0169808,VALID,18.6464,VALID,217,VALID,1.30243,
2001-04-30, 03:30:00,VALID,915.889,VALID,0,VALID,99.4382,VALID,-0.0169808,VALID,18.6531,VALID,218,VALID,1.07936,
2001-04-30, 03:31:00,VALID,915.877,VALID,0,VALID,99.4268,VALID,-0.0339617,VALID,18.6439,VALID,221,VALID,1.17773,
2001-04-30, 03:32:00,VALID,915.875,VALID,0,VALID,99.4306,VALID,0,VALID,18.6233,VALID,218,VALID,1.33333,
2001-04-30, 03:33:00,VALID,915.875,VALID,0,VALID,99.4446,VALID,-0.0169808,VALID,18.6307,VALID,216,VALID,1.17254,
2001-04-30, 03:34:00,VALID,915.858,VALID,0,VALID,99.4433,VALID,-0.0169808,VALID,18.6268,VALID,221,VALID,0.872852,
2001-04-30, 03:35:00,VALID,915.861,VALID,0,VALID,99.4408,VALID,-0.0169808,VALID,18.6309,VALID,220,VALID,0.750651,
2001-04-30, 03:36:00,VALID,915.86,VALID,0,VALID,99.4433,VALID,0,VALID,18.6203,VALID,213,VALID,0.790582,